{"data":{"norad_id":59698,"epoch":"2026-09-21T15:50:39.729984Z","epoch_age_seconds":70968,"freshness":"FRESH","line1":"1 59698U 24086S   26264.66018206  .00010232  00000+0  38073-3 0  9997","line2":"2 59698  43.0007  33.1263 0001738 276.4696  83.5958 15.27589670134084","mean_motion":15.2758967,"eccentricity":0.0001738,"inclination_deg":43.0007,"raan_deg":33.1263,"arg_perigee_deg":276.4696,"mean_anomaly_deg":83.5958,"bstar":0.00038073,"rev_number":13408,"period_min":94.266151983078,"perigee_km":481.82767162257,"apogee_km":484.21260984469,"semimajor_km":6861.1571407336,"source":"CELESTRAK","updated_at":"2026-09-22T09:00:49.055486Z"}}